Chillicothe, MO

3:46 AM CST on December 18, 2017 (GMT -0600)
Chillicothe

Weather History for KCDJ - January, 2014

Change the Weather History Date:

Thursday, January 2, 2014

  Actual Average (KIRK) Record (KIRK)
Temperature  
Mean Temperature 6 °F -  
Max Temperature 15 °F 33 °F 63 °F (2004)
Min Temperature -5 °F 17 °F -13 °F (1979)
Degree Days  
Heating Degree Days 60    
Moisture  
Dew Point -4 °F    
Average Humidity 65    
Maximum Humidity 80    
Minimum Humidity 41    
Precipitation  
Precipitation 0.00 in - - ()
Sea Level Pressure  
Sea Level Pressure 30.51 in    
Wind  
Wind Speed 6 mph (NW)    
Max Wind Speed 10 mph    
Max Gust Speed -    
Averages and records for this station are not official NWS values.
T = Trace of Precipitation, MM = Missing Value Source: NWS Daily Summary

Daily Weather History Graph

Daily Weather History Graph

Search for Another Location

Airport or City:

Trip Planner

Search our weather history database for the weather conditions in past years. The results will help you decide how hot, cold, wet, or windy it might be!

Date:

Astronomy

Jan. 02, 2014 Rise Set
Actual Time 7:35 AM CST 5:01 PM CST
Civil Twilight 7:05 AM CST 5:31 PM CST
Nautical Twilight 6:31 AM CST 6:05 PM CST
Astronomical Twilight 5:58 AM CST 6:38 PM CST
Moon 8:17 AM CST (1/2) 6:58 PM CST (1/2)
Length of Visible Light 10h 26m
Length of Day
9h 25m
Waxing Crescent, 3% of the Moon is Illuminated
Jan 2
Waxing Crescent
Jan 7
First Quarter
Jan 15
Full
Jan 23
Last Quarter
Jan 30
New

Hourly Weather History & Observations

Time (CST) Temp. Windchill Dew Point Humidity Pressure Visibility Wind Dir Wind Speed Gust Speed Precip Events Conditions
12:52 AM 9.0 °F -3.2 °F 1.9 °F 73% 30.37 in - NNW 8.1 mph - N/A   Unknown
1:52 AM 9.0 °F -2.2 °F 1.9 °F 73% 30.38 in - NW 6.9 mph - N/A   Unknown
2:52 AM 7.0 °F -5.7 °F -0.0 °F 73% 30.41 in - NNW 8.1 mph - N/A   Unknown
3:52 AM 3.9 °F -6.9 °F -2.9 °F 73% 30.42 in - NW 5.8 mph - N/A   Unknown
4:52 AM 1.9 °F -13.8 °F -4.0 °F 76% 30.45 in - NW 10.4 mph - N/A   Unknown
5:52 AM 1.9 °F -9.2 °F -5.1 °F 72% 30.46 in - NW 5.8 mph - N/A   Unknown
6:52 AM 3.0 °F -8.0 °F -4.0 °F 73% 30.45 in - NW 5.8 mph - N/A   Unknown
7:52 AM 1.9 °F -9.2 °F -5.1 °F 72% 30.48 in - NW 5.8 mph - N/A   Unknown
8:52 AM 3.9 °F -5.3 °F -4.0 °F 70% 30.49 in - Variable 4.6 mph - N/A   Unknown
9:52 AM 7.0 °F -5.7 °F -2.9 °F 64% 30.52 in - NW 8.1 mph - N/A   Unknown
10:52 AM 9.0 °F -2.2 °F -2.9 °F 59% 30.53 in - Variable 6.9 mph - N/A   Unknown
11:52 AM 10.9 °F 0.2 °F -2.0 °F 56% 30.51 in - NW 6.9 mph - N/A   Unknown
12:52 PM 12.9 °F 1.6 °F -2.9 °F 49% 30.50 in - NW 8.1 mph - N/A   Unknown
1:52 PM 14.0 °F 2.0 °F -4.0 °F 45% 30.50 in - WNW 9.2 mph - N/A   Unknown
2:52 PM 15.1 °F 5.2 °F -5.1 °F 41% 30.51 in - Variable 6.9 mph - N/A   Unknown
3:52 PM 14.0 °F 5.1 °F -5.1 °F 43% 30.54 in - NW 5.8 mph - N/A   Unknown
4:52 PM 10.9 °F 2.9 °F -5.1 °F 49% 30.56 in - NW 4.6 mph - N/A   Unknown
5:52 PM 7.0 °F - -5.1 °F 58% 30.58 in - Calm Calm - N/A   Unknown
6:52 PM -0.0 °F - -7.1 °F 72% 30.59 in - Calm Calm - N/A   Unknown
7:52 PM -0.0 °F - -6.0 °F 76% 30.61 in - Calm Calm - N/A   Unknown
8:52 PM -0.9 °F - -8.0 °F 72% 30.60 in - Calm Calm - N/A   Unknown
9:52 PM -4.0 °F - -9.9 °F 76% 30.61 in - Calm Calm - N/A   Unknown
10:52 PM -2.9 °F - -9.0 °F 75% 30.62 in - Calm Calm - N/A   Unknown
11:52 PM -5.1 °F - -9.9 °F 80% 30.61 in - Calm Calm - N/A   Unknown